Temperature
7 8 9 10 10 10 10 10 11 11 11 12 12 12 13 13 13 13 13 13 13 14 14 14 14 14 14 14 14 15 15 15 16 16 16 16 16 16 16 17 17 17 17
7 9 9 10 10 10 10 10 10 10 11 11 11 12 12 12 12 12 13 13 13 13 13 13 13 13 14 14 14 14 14 15 15 15 16 16 16 16 16 16 16 17 17
8 9 9 9 10 10 10 10 10 10 10 10 10 11 11 11 11 12 12 12 12 13 13 13 13 13 13 14 14 14 14 14 14 15 15 15 16 16 16 16 16 16 16
8 9 9 9 9 9 10 10 10 10 10 10 10 10 10 10 10 10 11 11 11 12 12 12 12 13 13 13 13 13 13 14 14 14 15 15 15 16 16 16 16 16 16
8 9 9 9 9 9 9 9 9 9 8 8 8 8 8 8 8 8 9 9 10 10 11 11 11 12 12 12 13 13 13 13 14 14 14 15 15 15 15 15 16 16 16
8 9 9 9 9 8 8 8 8 7 7 7 7 6 6 7 7 6 7 7 8 8 8 9 10 10 11 12 12 12 13 13 13 14 14 14 14 15 15 15 15 16 16
8 8 8 8 8 8 7 7 6 6 6 6 5 5 5 6 6 5 6 6 6 6 6 7 8 9 9 10 11 12 12 13 13 13 13 14 14 14 15 15 15 15 16
8 8 8 8 7 7 6 6 5 5 5 5 5 5 5 5 5 5 5 5 5 5 5 6 6 7 7 8 9 10 11 12 12 13 13 13 13 14 14 15 15 15 15
7 7 7 7 6 6 5 5 5 4 4 4 4 4 4 4 4 4 4 4 4 4 4 4 5 5 6 7 8 9 10 10 11 12 12 13 13 13 13 14 14 15 15
7 7 6 5 5 5 4 4 4 4 3 3 3 3 3 4 4 4 4 4 3 3 3 4 4 4 5 6 6 7 8 9 10 11 11 12 12 12 13 13 14 14 15
6 6 5 4 4 4 3 3 3 3 3 3 3 3 3 3 3 3 3 3 3 3 3 3 3 3 4 5 5 6 7 8 9 10 10 11 11 12 12 13 13 14 14
5 4 4 3 3 3 2 2 2 2 2 2 2 2 2 2 2 2 2 2 2 2 2 2 2 3 3 4 4 5 6 6 7 8 9 10 10 11 12 12 13 13 14
3 3 3 2 2 2 2 2 2 2 1 1 1 1 1 1 1 1 1 1 1 1 1 1 2 2 2 2 3 4 4 5 6 7 8 9 9 10 11 12 12 13 13
2 2 2 2 2 2 1 1 1 1 1 1 0 -0 -0 0 -0 -0 -0 -1 -0 -0 -0 -0 -0 0 1 1 1 2 3 4 4 5 7 8 9 9 10 11 12 12 13
2 2 2 2 1 1 1 1 0 0 -0 -0 -1 -1 -1 -2 -2 -2 -2 -2 -2 -3 -2 -2 -2 -2 -1 -0 0 1 2 2 3 4 5 6 7 8 9 10 11 12 12
1 1 1 1 1 1 1 0 -0 -0 -1 -1 -2 -2 -3 -3 -3 -4 -4 -4 -4 -4 -4 -4 -4 -3 -3 -2 -1 -0 1 1 2 3 3 5 6 7 8 9 10 11 12
1 1 1 1 0 0 0 -0 -1 -1 -2 -2 -3 -3 -4 -4 -5 -5 -5 -6 -6 -6 -6 -5 -5 -5 -4 -4 -3 -1 -1 0 1 2 2 3 5 6 7 8 9 10 11
0 -0 0 0 0 0 -0 -1 -1 -2 -3 -3 -4 -5 -5 -6 -6 -6 -7 -7 -7 -7 -7 -7 -6 -6 -5 -5 -4 -3 -2 -1 0 1 1 2 3 4 5 7 8 9 10
-1 -1 -0 -0 -0 -0 -1 -1 -2 -3 -3 -4 -5 -5 -6 -6 -7 -7 -8 -8 -8 -8 -8 -8 -8 -8 -7 -7 -6 -5 -3 -2 -1 -1 -0 1 1 2 3 5 7 8 9
-1 -1 -1 -1 -1 -1 -2 -2 -3 -3 -4 -5 -6 -6 -7 -7 -8 -9 -9 -9 -10 -10 -10 -9 -9 -9 -9 -8 -8 -7 -5 -3 -2 -2 -2 -1 -1 0 1 3 5 7 9
-1 -1 -1 -1 -1 -2 -3 -3 -4 -4 -5 -6 -7 -7 -8 -8 -9 -10 -10 -10 -11 -11 -11 -11 -11 -10 -10 -10 -10 -9 -5 -4 -4 -4 -4 -3 -2 -2 -0 1 4 6 8
-1 -1 -1 -2 -2 -3 -4 -5 -5 -6 -6 -7 -7 -8 -9 -9 -10 -10 -11 -11 -12 -12 -12 -12 -12 -12 -12 -12 -12 -11 -9 -7 -5 -4 -4 -4 -3 -3 -1 0 2 4 6
-1 -1 -2 -2 -3 -4 -5 -5 -5 -6 -6 -7 -8 -9 -10 -10 -11 -11 -12 -12 -13 -13 -13 -13 -13 -13 -13 -12 -12 -12 -10 -8 -9 -7 -6 -5 -5 -4 -2 -1 1 2 4
-1 -2 -2 -3 -4 -4 -5 -5 -6 -7 -8 -8 -9 -10 -10 -11 -11 -12 -12 -13 -13 -14 -14 -13 -14 -13 -13 -13 -13 -12 -11 -10 -9 -8 -7 -6 -6 -5 -3 -2 -0 1 3
-2 -2 -2 -3 -4 -4 -5 -6 -7 -8 -9 -9 -10 -10 -11 -11 -12 -12 -13 -13 -13 -14 -14 -14 -14 -14 -14 -14 -13 -12 -11 -10 -10 -9 -8 -7 -6 -5 -4 -3 -1 1 2
-2 -2 -3 -3 -4 -5 -5 -6 -7 -8 -9 -9 -10 -11 -12 -12 -12 -13 -13 -13 -13 -14 -14 -14 -14 -14 -14 -13 -13 -12 -11 -11 -10 -9 -9 -8 -8 -6 -5 -3 -2 -0 1
Wind_Speed
12 24 28 29 30 30 30 30 31 31 31 31 31 31 31 31 30 30 31 31 30 30 30 29 29 28 28 27 24 21 19 17 15 12 10 9 9 8 6 6 6 5 6
16 23 27 29 29 29 30 30 30 30 30 30 30 30 30 30 30 29 30 30 30 30 30 29 28 28 28 28 27 26 22 19 17 15 12 10 10 10 9 8 8 7 8
20 23 26 29 29 29 29 29 30 30 30 30 30 30 30 30 30 30 30 30 30 30 29 29 29 28 28 28 27 26 26 23 20 18 15 11 10 11 12 10 10 10 11
19 23 25 28 28 29 29 29 29 30 30 30 30 29 29 30 30 29 30 30 30 29 29 29 29 29 28 28 28 27 26 26 24 21 14 11 10 12 13 12 12 12 12
19 24 26 29 29 28 29 29 29 29 29 29 29 29 29 29 29 29 30 30 30 30 29 28 28 29 29 29 28 27 26 26 26 21 16 13 12 14 15 14 14 14 14
19 25 27 29 28 28 28 29 29 29 29 28 28 28 28 29 29 29 29 29 29 29 29 28 28 28 28 29 29 28 27 27 24 19 17 15 13 15 17 17 16 16 17
18 23 26 28 28 27 27 28 28 28 28 28 28 29 29 29 29 28 29 29 29 29 28 28 28 29 28 28 28 28 28 29 22 18 17 15 14 17 19 19 19 18 19
17 21 24 27 28 27 26 27 28 27 27 27 28 29 29 30 30 29 29 29 29 28 28 28 28 29 28 28 28 28 28 28 21 19 18 17 16 18 20 21 21 20 21
17 20 23 25 25 25 25 26 27 27 27 27 27 29 29 30 30 29 30 29 29 29 28 28 28 29 29 28 27 28 28 26 20 19 19 16 18 20 20 21 22 23 22
15 19 22 24 24 24 23 25 27 26 26 26 26 27 28 28 28 28 29 29 29 28 28 28 29 29 29 27 28 28 28 22 20 21 17 18 22 23 22 21 21 23 23
12 15 21 22 23 23 20 21 23 22 23 23 23 26 25 23 23 24 27 28 28 28 28 28 29 28 28 26 27 28 23 18 22 17 17 21 26 26 24 23 21 22 24
11 9 16 19 20 20 18 18 20 19 20 21 21 23 22 21 21 22 24 25 27 27 27 28 28 26 24 21 23 24 18 21 18 16 18 25 27 26 26 25 23 22 22
6 7 11 15 18 18 18 16 18 18 18 19 20 22 21 20 19 20 20 20 22 23 22 24 23 21 21 20 20 20 20 19 16 17 20 26 27 27 27 26 25 23 22
6 7 8 13 16 17 17 16 16 17 16 17 18 20 20 18 18 19 18 19 19 19 21 20 20 22 21 21 20 20 20 18 18 18 20 26 28 29 28 27 25 24 23
6 7 8 10 15 16 16 15 16 16 16 17 18 19 20 18 17 18 17 17 18 20 19 19 19 20 20 20 19 19 19 20 21 20 19 26 29 28 28 27 25 24 24
6 7 10 8 15 15 15 15 15 17 17 17 17 19 20 19 18 17 16 16 17 19 20 19 19 18 16 17 17 19 20 21 19 20 21 24 26 27 26 26 25 24 24
5 7 9 9 14 14 15 16 17 18 17 17 17 19 19 19 19 18 15 14 17 20 20 19 18 15 14 14 14 16 17 17 19 20 21 20 20 22 24 24 24 24 24
5 6 8 11 12 14 15 16 17 18 18 17 18 18 19 19 20 18 15 14 19 19 17 15 10 12 12 13 14 14 13 14 17 19 19 18 17 17 19 22 22 22 22
5 6 6 9 11 14 16 16 16 17 17 17 18 18 19 20 20 19 16 15 19 16 14 13 10 11 13 14 14 14 13 14 15 16 14 15 15 15 14 17 21 21 20
4 5 6 8 11 13 14 13 13 13 15 17 17 18 21 20 21 20 17 16 18 12 8 9 12 11 11 13 15 15 14 16 14 11 11 10 11 12 13 16 15 16 18
4 6 6 7 9 10 6 6 7 8 7 11 15 19 21 21 21 20 16 16 16 9 10 11 11 13 11 11 12 14 13 13 11 6 7 7 7 9 14 15 14 14 13
5 6 7 8 8 10 8 8 6 7 7 11 15 17 19 21 22 20 18 16 15 10 10 10 12 10 11 9 10 12 7 6 4 10 7 7 7 9 12 15 15 14 14
5 7 8 8 8 11 13 11 10 5 4 6 7 8 17 21 22 21 20 18 16 10 10 11 11 11 12 11 7 7 6 6 12 6 6 6 8 10 11 11 13 15 16
5 6 7 7 8 11 13 9 9 9 10 10 8 9 19 21 21 21 20 19 17 13 11 11 10 10 11 11 10 8 10 11 8 7 5 5 8 10 11 13 14 13 14
5 6 7 7 7 10 12 9 9 8 7 9 9 9 10 16 19 20 21 19 17 14 11 11 12 10 9 10 10 10 11 11 11 9 12 10 9 7 9 12 12 11 11
5 5 6 8 8 8 9 9 9 10 11 13 13 11 10 9 13 17 21 19 18 15 13 13 11 11 10 11 10 10 10 9 9 9 11 14 13 10 11 10 10 9 9
Wind_Direction
342 349 2 11 14 15 16 16 17 16 16 15 14 14 13 12 11 11 9 8 6 5 3 1 0 359 358 357 351 342 332 324 317 310 304 299 293 280 254 231 231 237 209
347 354 5 13 15 16 16 17 17 16 15 14 13 12 11 10 10 9 8 5 4 2 1 360 358 357 357 356 354 350 340 326 317 308 298 291 287 282 268 240 230 238 222
0 0 6 14 16 16 17 17 16 15 15 14 13 12 10 9 7 7 5 3 2 360 358 357 356 355 354 353 350 348 345 339 324 312 301 287 277 276 270 252 236 238 226
7 8 9 16 16 17 17 16 16 15 14 13 12 11 10 8 6 5 3 1 360 358 356 355 354 352 351 349 347 346 344 343 339 323 306 286 272 273 269 257 240 237 228
18 16 12 18 17 17 17 16 15 14 13 12 11 10 9 7 5 4 2 359 357 356 354 353 352 350 348 347 345 343 342 342 339 333 316 294 275 271 270 263 248 238 231
26 22 16 19 17 16 16 16 14 13 12 12 11 9 8 6 3 1 0 357 355 354 352 351 349 348 346 345 343 342 342 340 337 330 320 302 281 274 269 263 253 242 234
31 27 21 20 18 16 15 15 13 13 12 11 10 9 7 5 1 360 359 355 353 352 350 349 347 346 345 344 342 341 340 339 335 332 325 311 293 283 273 264 256 246 235
37 31 26 21 19 16 15 15 13 12 11 11 9 8 6 3 0 359 357 353 352 350 348 347 345 344 342 342 341 340 339 338 336 334 326 315 303 293 280 267 258 251 240
43 36 28 23 20 16 14 14 12 12 11 10 8 6 5 2 359 357 355 352 351 349 348 346 344 342 341 340 339 339 338 337 342 332 323 319 316 309 294 277 264 254 245
45 39 30 25 20 14 12 14 12 11 10 9 7 4 2 359 356 355 352 349 350 348 347 345 343 341 341 339 337 336 337 339 336 326 321 316 321 319 310 295 276 260 250
34 35 29 24 20 15 13 12 9 9 7 7 3 2 360 354 350 352 348 348 348 346 346 343 342 341 340 337 334 334 336 332 327 321 318 315 319 318 314 308 295 273 255
17 18 27 22 18 16 12 7 8 4 0 360 358 358 355 351 348 349 345 347 347 345 344 341 340 341 338 332 330 331 327 324 322 318 313 314 314 314 314 310 303 290 266
6 1 13 19 17 16 9 5 7 360 357 356 355 355 352 349 347 345 342 342 342 343 340 337 337 335 331 328 324 322 320 321 316 313 309 309 311 312 310 307 302 294 281
5 350 356 17 16 13 9 2 5 357 354 352 350 352 352 348 345 342 338 336 339 339 335 333 330 327 325 323 319 316 316 315 310 308 305 306 308 308 305 302 297 292 283
2 344 346 14 14 9 7 2 359 353 350 346 347 350 350 346 341 339 334 333 334 336 333 329 327 324 323 321 317 315 313 309 305 303 303 303 304 304 302 299 295 290 282
353 343 342 13 13 7 3 357 354 349 345 344 344 344 346 342 337 336 331 328 332 334 330 326 321 319 320 317 314 313 308 304 300 300 300 300 301 300 300 298 294 288 283
353 341 342 7 7 4 1 356 350 343 341 338 338 338 339 338 335 333 327 325 330 330 328 326 319 322 319 316 312 309 306 302 300 299 298 296 295 298 299 299 297 291 283
353 335 334 355 358 0 358 351 344 339 336 332 331 331 333 334 332 331 325 321 327 327 327 325 324 326 320 316 313 309 304 301 298 295 294 291 291 293 298 303 303 297 288
339 319 322 338 351 354 351 345 338 333 329 327 327 328 331 331 330 328 319 318 326 323 323 324 328 322 319 317 313 307 304 300 293 291 291 290 289 294 303 313 314 310 298
321 311 315 336 349 349 344 339 333 328 325 325 325 327 330 329 328 325 318 321 323 319 318 319 319 319 315 315 313 308 301 291 284 282 285 292 298 308 325 325 322 319 313
315 329 335 344 343 346 342 338 330 327 320 318 324 328 326 326 325 322 320 321 319 316 316 316 319 318 318 319 317 316 299 281 274 287 294 298 306 329 332 329 327 325 319
322 336 342 345 335 339 334 323 312 310 306 313 320 320 324 326 325 325 322 319 316 313 313 314 317 314 319 326 318 318 312 306 341 324 302 309 330 339 333 328 322 323 320
337 340 342 332 330 334 334 330 329 310 300 320 324 315 325 326 323 321 318 317 314 310 310 309 306 313 315 313 306 304 306 314 324 283 289 317 337 328 323 319 318 318 313
343 338 332 328 329 333 337 335 335 341 333 329 325 320 325 325 323 323 321 317 312 310 305 304 314 305 303 307 306 285 288 295 296 305 304 317 318 319 316 318 313 308 308
348 335 330 331 328 332 335 331 327 322 315 320 322 319 320 324 323 322 321 316 312 310 302 298 300 295 295 292 295 294 293 290 278 286 302 313 315 305 307 308 301 302 306
339 334 339 341 333 330 331 327 323 320 322 328 331 329 329 324 321 318 319 314 309 307 301 299 294 291 290 286 285 284 286 289 294 295 298 307 310 311 307 300 297 300 306
Height
1617 1614 1612 1608 1604 1601 1597 1593 1590 1586 1583 1580 1577 1574 1572 1569 1567 1564 1562 1560 1558 1557 1555 1553 1551 1549 1548 1546 1545 1544 1544 1543 1543 1543 1543 1543 1543 1543 1543 1543 1543 1544 1544
1619 1615 1612 1608 1604 1601 1597 1593 1590 1586 1583 1580 1576 1574 1571 1568 1565 1562 1560 1558 1556 1554 1552 1550 1549 1547 1546 1544 1543 1542 1541 1541 1540 1540 1540 1540 1540 1541 1541 1542 1542 1543 1543
1619 1615 1612 1608 1604 1600 1597 1593 1589 1585 1582 1578 1575 1572 1569 1566 1563 1560 1558 1555 1553 1551 1549 1547 1545 1544 1543 1541 1540 1539 1538 1537 1537 1537 1537 1537 1538 1538 1539 1539 1540 1541 1542
1618 1615 1611 1608 1604 1600 1596 1592 1588 1584 1581 1577 1574 1570 1567 1564 1561 1557 1555 1552 1549 1547 1545 1543 1541 1540 1539 1538 1537 1536 1534 1533 1533 1533 1533 1534 1534 1535 1536 1537 1538 1539 1540
1618 1615 1611 1607 1603 1599 1595 1591 1587 1583 1579 1575 1571 1568 1565 1561 1558 1554 1552 1549 1546 1543 1541 1539 1537 1535 1534 1533 1532 1531 1530 1529 1529 1529 1529 1529 1530 1531 1532 1533 1534 1536 1537
1618 1614 1611 1606 1602 1598 1593 1589 1585 1580 1576 1573 1569 1565 1562 1559 1556 1552 1549 1546 1543 1540 1537 1534 1532 1530 1529 1528 1527 1526 1525 1524 1524 1525 1525 1525 1525 1527 1528 1529 1531 1532 1533
1617 1613 1609 1605 1601 1596 1592 1587 1583 1579 1575 1571 1567 1563 1559 1556 1553 1549 1546 1543 1540 1537 1533 1530 1528 1525 1523 1522 1521 1520 1519 1519 1519 1519 1520 1520 1521 1522 1523 1524 1526 1528 1529
1616 1612 1608 1604 1599 1595 1590 1585 1581 1577 1573 1569 1565 1561 1558 1554 1550 1546 1543 1539 1536 1533 1530 1527 1524 1521 1518 1516 1515 1514 1513 1513 1512 1512 1514 1515 1516 1517 1518 1519 1521 1523 1525
1614 1611 1606 1602 1597 1593 1589 1584 1580 1575 1571 1568 1564 1560 1556 1552 1548 1544 1540 1536 1533 1529 1526 1523 1519 1516 1513 1511 1510 1508 1507 1506 1505 1506 1507 1508 1510 1511 1512 1513 1515 1517 1519
1613 1609 1604 1600 1596 1591 1587 1583 1578 1574 1570 1566 1562 1558 1554 1550 1546 1542 1538 1534 1530 1526 1522 1519 1515 1511 1508 1506 1504 1502 1500 1499 1499 1499 1500 1501 1502 1503 1505 1506 1508 1510 1512
1611 1607 1602 1598 1593 1589 1585 1581 1577 1572 1568 1564 1559 1555 1551 1547 1542 1538 1534 1530 1527 1523 1518 1514 1510 1506 1502 1500 1498 1496 1493 1492 1492 1492 1492 1493 1494 1495 1497 1499 1501 1503 1505
1609 1605 1600 1595 1591 1587 1583 1579 1575 1571 1566 1562 1557 1553 1548 1544 1539 1535 1531 1526 1522 1518 1514 1510 1506 1501 1497 1494 1492 1490 1487 1485 1484 1484 1484 1485 1486 1487 1488 1490 1493 1495 1498
1608 1603 1598 1594 1590 1586 1582 1578 1574 1569 1565 1560 1555 1550 1545 1541 1536 1531 1526 1521 1516 1512 1508 1504 1500 1496 1492 1489 1485 1483 1481 1478 1477 1476 1476 1477 1477 1478 1479 1482 1485 1487 1490
1606 1601 1597 1593 1590 1586 1581 1577 1572 1567 1563 1557 1552 1547 1541 1536 1532 1527 1522 1517 1512 1507 1502 1498 1494 1490 1487 1484 1480 1477 1474 1472 1470 1468 1467 1469 1469 1470 1471 1473 1476 1479 1482
1605 1600 1596 1593 1589 1585 1581 1576 1571 1566 1561 1556 1550 1545 1539 1533 1527 1522 1517 1512 1508 1503 1498 1492 1488 1484 1480 1477 1474 1471 1467 1465 1463 1461 1459 1460 1460 1461 1463 1464 1467 1470 1474
1604 1600 1596 1593 1588 1584 1580 1575 1570 1564 1559 1554 1548 1542 1536 1530 1524 1518 1513 1508 1503 1498 1493 1488 1483 1478 1474 1470 1467 1464 1461 1458 1455 1454 1452 1452 1452 1453 1454 1456 1458 1461 1464
1603 1599 1595 1591 1587 1583 1579 1574 1568 1563 1556 1550 1544 1538 1532 1526 1520 1514 1509 1504 1499 1494 1489 1483 1478 1473 1468 1464 1460 1457 1454 1451 1448 1447 1445 1444 1444 1444 1445 1447 1449 1451 1454
1602 1598 1594 1590 1586 1582 1577 1572 1566 1560 1554 1547 1541 1535 1529 1523 1517 1511 1505 1500 1494 1489 1484 1479 1473 1467 1462 1457 1453 1449 1447 1444 1441 1440 1438 1437 1436 1436 1437 1438 1440 1442 1445
1601 1596 1592 1588 1584 1580 1574 1569 1563 1557 1550 1544 1538 1532 1525 1519 1513 1507 1501 1496 1490 1485 1480 1475 1469 1464 1457 1452 1447 1443 1439 1437 1434 1433 1431 1430 1430 1429 1429 1429 1430 1433 1436
1599 1595 1591 1586 1582 1576 1571 1565 1559 1553 1547 1541 1534 1528 1522 1515 1509 1503 1497 1491 1486 1480 1475 1470 1465 1460 1455 1449 1442 1437 1433 1431 1428 1426 1425 1425 1424 1423 1422 1421 1422 1424 1427
1597 1593 1589 1584 1579 1573 1566 1559 1553 1546 1541 1535 1529 1524 1518 1511 1505 1498 1492 1486 1481 1476 1471 1466 1461 1455 1451 1446 1439 1431 1426 1425 1422 1421 1421 1420 1419 1417 1415 1415 1415 1415 1418
1595 1591 1586 1581 1576 1570 1563 1557 1550 1543 1537 1531 1525 1519 1513 1507 1500 1494 1487 1482 1476 1471 1466 1462 1457 1452 1447 1445 1440 1433 1425 1420 1419 1417 1417 1416 1414 1412 1410 1409 1408 1408 1410
1592 1588 1584 1579 1574 1568 1561 1554 1547 1540 1533 1527 1519 1513 1508 1502 1496 1490 1483 1477 1472 1467 1462 1458 1453 1449 1443 1440 1440 1438 1432 1424 1417 1411 1412 1411 1409 1407 1405 1403 1403 1402 1403
1590 1586 1582 1577 1571 1565 1558 1551 1544 1537 1530 1523 1516 1510 1504 1498 1492 1486 1479 1473 1468 1463 1458 1453 1449 1445 1440 1436 1434 1433 1431 1427 1422 1411 1407 1407 1405 1403 1401 1399 1398 1397 1398
1588 1584 1580 1575 1569 1562 1556 1549 1542 1535 1528 1521 1514 1507 1500 1494 1488 1482 1476 1470 1464 1458 1453 1448 1444 1440 1436 1432 1429 1427 1425 1423 1420 1415 1406 1402 1400 1399 1397 1395 1393 1393 1393
1586 1582 1577 1572 1566 1560 1553 1547 1540 1533 1526 1518 1511 1504 1497 1491 1484 1479 1472 1466 1460 1453 1448 1442 1438 1434 1430 1427 1424 1422 1421 1419 1416 1413 1407 1401 1397 1394 1393 1391 1389 1388 1388